Meteo Giornale » Osservazioni meteo Svizzera » Lugano

ore: 16:20 - Osservazioni Meteo Lugano
Lat. 46° 0' N Lon. 8° 58' E Alt. 273 metri s.l.m.

sereno Europe/Zurich

15 °C

Sereno

Temp. 24 Ore

7 °C

17 °C

Nord

3.7 Km/h

Dew point 11 °C

Umidità 76 %

Visibilità  10 Km

Il sole sorge alle ore 07:22

Il sole tramonta alle ore 16:55

Data e Ora Cielo e Fenomeni T °C DP °C Um. % Pres. hPa Vis. km Vento km/h
Oggi h: 16:20 sereno Sereno 15 11 76 1027 10 N 3.7
Oggi h: 15:50 poco_nuvoloso Poco Nuvoloso 17 11 67 1027 10 N 3.7
Oggi h: 15:20 poco_nuvoloso Poco Nuvoloso 16 10 67 1027 10 N 5.5
Oggi h: 14:50 sereno Sereno 16 10 67 1027 10 N 5.5
Oggi h: 14:20 poco_nuvoloso Poco Nuvoloso 17 10 63 1027 10 N 3.7
Oggi h: 13:50 poco_nuvoloso Poco Nuvoloso 16 10 67 1028 10 N 3.7
Oggi h: 13:20 poco_nuvoloso Poco Nuvoloso 15 10 72 1028 10 N 3.7
Oggi h: 12:50 poco_nuvoloso Poco Nuvoloso 14 10 76 1029 10 N 5.5
Oggi h: 12:20 poco_nuvoloso Poco Nuvoloso 14 10 76 1029 10 N 5.5
Oggi h: 11:50 poco_nuvoloso Poco Nuvoloso 14 10 76 1030 10 N 3.7
Oggi h: 11:20 sereno Sereno 13 9 76 1030 10 N 3.7
Oggi h: 10:50 sereno Nebbia nelle Vicinanze 11 10 93 1030 10 N 5.5
Oggi h: 10:20 sereno Nebbia nelle Vicinanze 11 10 93 1030 10 N 1.8
Oggi h: 09:50 sereno Nebbia nelle Vicinanze 9 9 100 1030 10 N 1.8
Oggi h: 09:20 sereno Nebbia nelle Vicinanze 9 9 100 1030 10 N 1.8
Oggi h: 08:50 nuvoloso Nebbia nelle Vicinanze 7 7 100 1030 10 N 1.8
Oggi h: 08:20 nuvoloso Nebbia nelle Vicinanze 7 7 100 1029 10 N 3.7
Oggi h: 07:50 nuvoloso Nebbia nelle Vicinanze 7 7 100 1029 10 N 3.7
Oggi h: 07:20 poco_nuvoloso Nebbia nelle Vicinanze 7 7 100 1029 10 N 1.8
Oggi h: 06:50 nebbia NebbiaParziale 7 7 100 1029 10 N 1.8
Oggi h: 06:20 nebbia NebbiaParziale 7 7 100 1029 8 N 1.8
Oggi h: 05:50 nebbia Nebbia 7 7 100 1029 0.05 N 1.8
Oggi h: 05:20 nebbia Nebbia 7 7 100 1028 0.15 N 1.8
Oggi h: 04:50 nebbia Nebbia 7 7 100 1028 0.6 N 1.8
Oggi h: 04:20 nebbia Nebbia 7 7 100 1028 0.8 N 3.7
Oggi h: 03:50 nebbia Nebbia 7 7 100 1029 0.15 N 1.8
Oggi h: 03:20 nebbia Nebbia 7 7 100 1028 0.2 N 1.8
Oggi h: 02:50 nebbia Nebbia 8 8 100 1029 0.35 N 1.8
Oggi h: 02:20 nebbia Nebbia 8 8 100 1029 0.35 N 1.8
Oggi h: 01:50 nebbia Nebbia 8 8 100 1028 0.8 N 3.7
Oggi h: 01:20 nebbia Nebbia 9 9 100 1028 0.2 N 1.8
Oggi h: 00:50 nebbia Nebbia 9 9 100 1028 0.1 N 3.7
Oggi h: 00:20 nebbia Nebbia 9 9 100 1029 0.15 N 0
Ieri h: 23:50 sereno Sereno 8 8 100 1029 10 N 1.8
Ieri h: 23:20 sereno Sereno 9 9 100 1028 7 N 1.8
Ieri h: 22:50 sereno Sereno 10 10 100 1028 10 N 1.8
Ieri h: 22:20 sereno Sereno 9 9 100 1028 7 N 5.5
Ieri h: 21:50 sereno Sereno 10 9 93 1028 10 N 3.7
Ieri h: 21:20 sereno Sereno 10 10 100 1028 9 N 1.8
Ieri h: 20:50 sereno Sereno 10 10 100 1028 10 N 1.8
Ieri h: 20:20 sereno Sereno 11 10 93 1028 10 N 3.7
Ieri h: 19:50 poco_nuvoloso Poco Nuvoloso 11 10 93 1028 10 N 1.8
Ieri h: 19:20 poco_nuvoloso Poco Nuvoloso 12 11 93 1028 10 N 1.8
Ieri h: 18:50 poco_nuvoloso Poco Nuvoloso 12 11 93 1028 10 N 1.8
Ieri h: 18:20 sereno Sereno 12 11 93 1028 10 N 1.8
Ieri h: 17:50 sereno Sereno 13 12 93 1027 10 N 1.8
Ieri h: 17:20 sereno Sereno 14 12 87 1027 10 N 1.8
Ieri h: 16:50 nuvoloso Nuvoloso 15 12 82 1027 10 N 3.7